SJX762 WIII-RCTP

Flight info

Callsign SJX762
Flight time N/A
Altitude 33000
Route AMBOY P648 OKADA/N0503F350 P648 VJN M646 MIA/N0498F360 B462 LAO/N0499F350 M646 HCN W4 TNN TNN1A
Aircraft A35K/H-SDE2E3GHIJ3J4J5LM1ORWXY/LB1D1

Departure

Time 2026-04-29 03:51
Airport Soekarno-Hatta International Airport (WIII)

Arrival

Time N/A
Airport Taiwan Taoyuan International Airport (RCTP)
Time Latitude Longitude Altitude Speed Heading
2026-04-29 03:40 -6.11357 106.66996 36 ft 0 kts 70°
2026-04-29 03:44 -6.11358 106.66996 36 ft 1 kts 70°
2026-04-29 03:45 -6.11362 106.66984 34 ft 3 kts 58°
2026-04-29 03:45 -6.11367 106.66977 35 ft 3 kts 36°
2026-04-29 03:45 -6.11383 106.66965 33 ft 3 kts 39°
2026-04-29 03:45 -6.11399 106.66952 33 ft 3 kts 38°
2026-04-29 03:46 -6.11415 106.66940 33 ft 3 kts 30°
2026-04-29 03:46 -6.11426 106.66934 31 ft 0 kts 24°
2026-04-29 03:47 -6.11425 106.66935 33 ft 1 kts 24°
2026-04-29 03:47 -6.11402 106.66940 32 ft 5 kts
2026-04-29 03:47 -6.11363 106.66927 36 ft 7 kts 334°
2026-04-29 03:48 -6.11314 106.66905 36 ft 8 kts 340°
2026-04-29 03:48 -6.11258 106.66885 36 ft 9 kts 340°
2026-04-29 03:48 -6.11196 106.66861 36 ft 10 kts 339°
2026-04-29 03:48 -6.11128 106.66849 36 ft 10 kts 13°
2026-04-29 03:49 -6.11097 106.66886 36 ft 7 kts 59°
2026-04-29 03:49 -6.11069 106.66936 35 ft 9 kts 60°
2026-04-29 03:49 -6.11015 106.66973 35 ft 11 kts
2026-04-29 03:49 -6.10949 106.66929 34 ft 12 kts 313°
2026-04-29 03:50 -6.10903 106.66874 34 ft 7 kts 267°
2026-04-29 03:50 -6.10917 106.66833 34 ft 7 kts 248°
2026-04-29 03:50 -6.11006 106.66614 36 ft 67 kts 248°
2026-04-29 03:50 -6.11263 106.65970 38 ft 129 kts 248°
2026-04-29 03:51 -6.11668 106.64959 89 ft 178 kts 247°
2026-04-29 03:51 -6.12146 106.63791 759 ft 175 kts 248°
2026-04-29 03:51 -6.12801 106.62781 1420 ft 178 kts 225°
2026-04-29 03:51 -6.13372 106.61633 1545 ft 198 kts 265°
2026-04-29 03:52 -6.12961 106.60267 1703 ft 220 kts 305°
2026-04-29 03:52 -6.12005 106.58991 1885 ft 242 kts 304°
2026-04-29 03:52 -6.11119 106.57503 2336 ft 253 kts 296°
2026-04-29 03:52 -6.10398 106.55873 2932 ft 257 kts 291°
2026-04-29 03:53 -6.09776 106.54182 3555 ft 260 kts 288°
2026-04-29 03:53 -6.09196 106.52418 4176 ft 263 kts 287°
2026-04-29 03:53 -6.08655 106.50677 4783 ft 266 kts 287°
2026-04-29 03:53 -6.07750 106.49057 5319 ft 271 kts 316°
2026-04-29 03:54 -6.06101 106.48165 5923 ft 274 kts 349°
2026-04-29 03:54 -6.04223 106.48307 6518 ft 278 kts 21°
2026-04-29 03:54 -6.02610 106.49379 7151 ft 279 kts 41°
2026-04-29 03:54 -6.01312 106.50831 7768 ft 282 kts 58°
2026-04-29 03:55 -6.00491 106.52623 8438 ft 284 kts 74°
2026-04-29 03:55 -6.00147 106.54583 8870 ft 286 kts 85°
2026-04-29 03:55 -5.99962 106.56577 8992 ft 288 kts 85°
2026-04-29 03:55 -5.99756 106.58589 9002 ft 289 kts 84°
2026-04-29 03:56 -5.99518 106.60593 9001 ft 290 kts 83°
2026-04-29 03:56 -5.99261 106.62600 9001 ft 290 kts 83°
2026-04-29 03:56 -5.98993 106.64611 9000 ft 290 kts 82°
2026-04-29 03:56 -5.98719 106.66617 9000 ft 290 kts 82°
2026-04-29 03:57 -5.98442 106.68627 9000 ft 290 kts 82°
2026-04-29 03:57 -5.98163 106.70633 9001 ft 290 kts 82°
2026-04-29 03:57 -5.97884 106.72630 9000 ft 290 kts 82°
2026-04-29 03:57 -5.97604 106.74641 9000 ft 290 kts 82°
2026-04-29 03:58 -5.97323 106.76646 9000 ft 290 kts 82°
2026-04-29 03:58 -5.97043 106.78646 9001 ft 290 kts 82°
2026-04-29 03:58 -5.96762 106.80649 9000 ft 290 kts 82°
2026-04-29 03:58 -5.96480 106.82660 9000 ft 290 kts 82°
2026-04-29 03:59 -5.96112 106.84644 9024 ft 290 kts 77°
2026-04-29 03:59 -5.95641 106.86618 9292 ft 292 kts 76°
2026-04-29 03:59 -5.95154 106.88606 9899 ft 294 kts 76°
2026-04-29 03:59 -5.94664 106.90614 10439 ft 303 kts 76°
2026-04-29 04:00 -5.94147 106.92739 10704 ft 320 kts 76°
2026-04-29 04:00 -5.93608 106.94956 10969 ft 337 kts 76°
2026-04-29 04:00 -5.93011 106.97288 11229 ft 353 kts 73°
2026-04-29 04:00 -5.91940 106.99524 11449 ft 368 kts 53°
2026-04-29 04:01 -5.90013 107.01299 11808 ft 378 kts 30°
2026-04-29 04:01 -5.87636 107.02369 12338 ft 381 kts 20°
2026-04-29 04:01 -5.85103 107.03284 12886 ft 386 kts 19°
2026-04-29 04:01 -5.82552 107.04202 13431 ft 389 kts 19°
2026-04-29 04:02 -5.80031 107.05120 13974 ft 392 kts 20°
2026-04-29 04:02 -5.77464 107.06064 14522 ft 396 kts 20°
2026-04-29 04:02 -5.74875 107.07021 15073 ft 399 kts 20°
2026-04-29 04:02 -5.72264 107.07996 15607 ft 402 kts 21°
2026-04-29 04:03 -5.69731 107.09211 16136 ft 406 kts 31°
2026-04-29 04:03 -5.67501 107.10965 16655 ft 409 kts 45°
2026-04-29 04:03 -5.65753 107.13215 17119 ft 412 kts 59°
2026-04-29 04:03 -5.64561 107.15823 17629 ft 414 kts 70°
2026-04-29 04:04 -5.63624 107.18577 18135 ft 417 kts 72°
2026-04-29 04:04 -5.62712 107.21354 18625 ft 420 kts 72°
2026-04-29 04:04 -5.61788 107.24140 19109 ft 423 kts 71°
2026-04-29 04:04 -5.60846 107.26959 19587 ft 426 kts 71°
2026-04-29 04:05 -5.59893 107.29794 20069 ft 429 kts 71°
2026-04-29 04:05 -5.58934 107.32641 20547 ft 432 kts 71°
2026-04-29 04:05 -5.57966 107.35508 21014 ft 435 kts 71°
2026-04-29 04:05 -5.56990 107.38393 21477 ft 439 kts 71°
2026-04-29 04:06 -5.56008 107.41299 21948 ft 442 kts 71°
2026-04-29 04:06 -5.55016 107.44231 22416 ft 445 kts 71°
2026-04-29 04:06 -5.54020 107.47172 22862 ft 448 kts 71°
2026-04-29 04:06 -5.53014 107.50145 23308 ft 451 kts 71°
2026-04-29 04:07 -5.51999 107.53141 23752 ft 454 kts 71°
2026-04-29 04:07 -5.50984 107.56138 24188 ft 457 kts 71°
2026-04-29 04:07 -5.49957 107.59170 24615 ft 459 kts 71°
2026-04-29 04:07 -5.48928 107.62208 25032 ft 462 kts 71°
2026-04-29 04:08 -5.47890 107.65272 25439 ft 465 kts 71°
2026-04-29 04:08 -5.46844 107.68359 25842 ft 468 kts 71°
2026-04-29 04:08 -5.45774 107.71453 26218 ft 471 kts 69°
2026-04-29 04:08 -5.44406 107.74447 26580 ft 474 kts 60°
2026-04-29 04:09 -5.42543 107.77182 26943 ft 476 kts 50°
2026-04-29 04:09 -5.40205 107.79557 27302 ft 479 kts 39°
2026-04-29 04:09 -5.37486 107.81472 27656 ft 481 kts 29°
2026-04-29 04:09 -5.34432 107.82885 27983 ft 484 kts 19°
2026-04-29 04:10 -5.31182 107.83725 28314 ft 486 kts
2026-04-29 04:10 -5.27844 107.84050 28635 ft 488 kts
2026-04-29 04:10 -5.24444 107.84501 28935 ft 491 kts 12°
2026-04-29 04:10 -5.21152 107.85336 29247 ft 493 kts 15°
2026-04-29 04:11 -5.17850 107.86282 29538 ft 495 kts 16°
2026-04-29 04:11 -5.14534 107.87246 29817 ft 497 kts 16°
2026-04-29 04:11 -5.11212 107.88214 30095 ft 499 kts 16°
2026-04-29 04:11 -5.07859 107.89190 30382 ft 502 kts 16°
2026-04-29 04:12 -5.04514 107.90163 30711 ft 501 kts 16°
2026-04-29 04:12 -5.01161 107.91138 31114 ft 500 kts 16°
2026-04-29 04:12 -4.97832 107.92106 31480 ft 499 kts 16°
2026-04-29 04:12 -4.94486 107.93079 31827 ft 498 kts 16°
2026-04-29 04:13 -4.91169 107.94043 32164 ft 498 kts 16°
2026-04-29 04:13 -4.87854 107.95007 32491 ft 497 kts 16°
2026-04-29 04:13 -4.84526 107.95974 32795 ft 497 kts 16°
2026-04-29 04:13 -4.81205 107.96941 32965 ft 499 kts 16°
2026-04-29 04:14 -4.74488 107.98897 32999 ft 503 kts 16°
2026-04-29 04:14 -4.67758 108.00851 33001 ft 503 kts 16°
2026-04-29 04:15 -4.61044 108.02802 33001 ft 503 kts 16°
2026-04-29 04:15 -4.54318 108.04757 32999 ft 503 kts 16°
2026-04-29 04:16 -4.47611 108.06706 33000 ft 503 kts 16°
2026-04-29 04:16 -4.40925 108.08649 33000 ft 503 kts 16°
2026-04-29 04:17 -4.34171 108.10611 33001 ft 503 kts 16°
2026-04-29 04:17 -4.27454 108.12562 33000 ft 503 kts 16°
2026-04-29 04:18 -4.20730 108.14515 32999 ft 503 kts 16°
2026-04-29 04:18 -4.14101 108.16728 33000 ft 503 kts 25°
2026-04-29 04:19 -4.08254 108.20516 33000 ft 502 kts 37°
2026-04-29 04:19 -4.02753 108.24826 33001 ft 503 kts 38°
2026-04-29 04:20 -3.97268 108.29200 33001 ft 503 kts 38°
2026-04-29 04:20 -3.91770 108.33540 33000 ft 503 kts 38°
2026-04-29 04:21 -3.86262 108.37854 33000 ft 503 kts 38°
2026-04-29 04:21 -3.80789 108.42133 33000 ft 503 kts 38°
2026-04-29 04:22 -3.75272 108.46447 32999 ft 503 kts 38°
2026-04-29 04:22 -3.69749 108.50765 33000 ft 503 kts 38°
2026-04-29 04:23 -3.64247 108.55068 33000 ft 503 kts 38°
2026-04-29 04:23 -3.58724 108.59387 33001 ft 503 kts 38°
2026-04-29 04:24 -3.54156 108.62958 32999 ft 503 kts 38°
2026-04-29 04:24 -3.48631 108.67277 33001 ft 503 kts 38°
2026-04-29 04:25 -3.43118 108.71585 33001 ft 503 kts 38°
2026-04-29 04:25 -3.36681 108.76615 32999 ft 503 kts 38°
2026-04-29 04:26 -3.32087 108.80204 33001 ft 503 kts 38°
2026-04-29 04:26 -3.26556 108.84525 33000 ft 503 kts 38°
2026-04-29 04:27 -3.21058 108.88819 33000 ft 503 kts 38°
2026-04-29 04:27 -3.15558 108.93115 33000 ft 503 kts 38°
2026-04-29 04:28 -3.10034 108.97428 33000 ft 503 kts 38°
2026-04-29 04:28 -3.04519 109.01734 33001 ft 503 kts 38°
2026-04-29 04:29 -2.99009 109.06036 33000 ft 503 kts 38°
2026-04-29 04:29 -2.93491 109.10342 33000 ft 503 kts 38°
2026-04-29 04:30 -2.87984 109.14644 33000 ft 503 kts 38°
2026-04-29 04:31 -2.79823 109.21242 33000 ft 503 kts 39°
2026-04-29 04:31 -2.74399 109.25661 33000 ft 503 kts 39°
2026-04-29 04:32 -2.68967 109.30067 33001 ft 503 kts 39°
2026-04-29 04:32 -2.63539 109.34458 33000 ft 503 kts 39°
2026-04-29 04:33 -2.58096 109.38859 33000 ft 503 kts 39°
2026-04-29 04:33 -2.52663 109.43252 33000 ft 503 kts 39°
2026-04-29 04:34 -2.47218 109.47655 33001 ft 503 kts 39°
2026-04-29 04:34 -2.41786 109.52047 33000 ft 503 kts 39°
2026-04-29 04:35 -2.36341 109.56449 33000 ft 503 kts 39°
2026-04-29 04:35 -2.30915 109.60836 33001 ft 503 kts 39°
2026-04-29 04:36 -2.25474 109.65234 33000 ft 503 kts 39°
2026-04-29 04:36 -2.20047 109.69620 33000 ft 503 kts 39°
2026-04-29 04:37 -2.14598 109.74024 33000 ft 503 kts 39°
2026-04-29 04:37 -2.09158 109.78420 33001 ft 503 kts 39°
2026-04-29 04:38 -2.03752 109.82787 33000 ft 503 kts 39°
2026-04-29 04:38 -1.98319 109.87177 33001 ft 503 kts 39°
2026-04-29 04:39 -1.92881 109.91570 33001 ft 502 kts 39°
2026-04-29 04:39 -1.87448 109.95959 33000 ft 502 kts 39°
2026-04-29 04:40 -1.82012 110.00350 33002 ft 502 kts 39°
2026-04-29 04:40 -1.76570 110.04746 33001 ft 502 kts 39°
2026-04-29 04:41 -1.71139 110.09132 33000 ft 502 kts 39°
2026-04-29 04:41 -1.65679 110.13507 33000 ft 502 kts 38°
2026-04-29 04:42 -1.60115 110.17726 33001 ft 502 kts 37°
2026-04-29 04:42 -1.54519 110.21919 33000 ft 502 kts 37°
2026-04-29 04:43 -1.48944 110.26130 33000 ft 502 kts 37°
2026-04-29 04:43 -1.43387 110.30349 33000 ft 502 kts 37°
2026-04-29 04:44 -1.37815 110.34585 33000 ft 502 kts 37°
2026-04-29 04:44 -1.32250 110.38816 33001 ft 502 kts 37°
2026-04-29 04:45 -1.26693 110.43055 33001 ft 502 kts 38°
2026-04-29 04:45 -1.21186 110.47352 33000 ft 502 kts 38°
2026-04-29 04:46 -1.15687 110.51663 33000 ft 502 kts 38°
2026-04-29 04:46 -1.10194 110.55957 33000 ft 502 kts 38°
2026-04-29 04:47 -1.04681 110.60258 33001 ft 502 kts 38°
2026-04-29 04:47 -0.99168 110.64557 33000 ft 502 kts 38°
2026-04-29 04:48 -0.93657 110.68854 32999 ft 502 kts 38°
2026-04-29 04:48 -0.88145 110.73153 33000 ft 502 kts 38°
2026-04-29 04:49 -0.82646 110.77441 33000 ft 502 kts 38°
2026-04-29 04:49 -0.77130 110.81742 33000 ft 502 kts 38°
2026-04-29 04:50 -0.71621 110.86037 33001 ft 502 kts 38°
2026-04-29 04:50 -0.66124 110.90324 33000 ft 502 kts 38°
2026-04-29 04:51 -0.60615 110.94619 33000 ft 502 kts 38°
2026-04-29 04:51 -0.55131 110.98895 33000 ft 502 kts 38°
2026-04-29 04:52 -0.49590 111.03215 33001 ft 502 kts 38°
2026-04-29 04:52 -0.44120 111.07480 33000 ft 502 kts 38°
2026-04-29 04:53 -0.38611 111.11775 33001 ft 502 kts 38°
2026-04-29 04:53 -0.33100 111.16070 33001 ft 502 kts 38°
2026-04-29 04:54 -0.27583 111.20342 33001 ft 502 kts 38°
2026-04-29 04:54 -0.22063 111.24618 32999 ft 502 kts 38°
2026-04-29 04:55 -0.16548 111.28894 33000 ft 502 kts 38°
2026-04-29 04:55 -0.11030 111.33175 33000 ft 502 kts 38°
2026-04-29 04:56 -0.05515 111.37454 33000 ft 502 kts 38°
2026-04-29 04:56 0.00000 111.41733 33000 ft 502 kts 38°
2026-04-29 04:57 0.05527 111.46021 33000 ft 502 kts 38°
2026-04-29 04:57 0.11038 111.50297 32998 ft 502 kts 38°
2026-04-29 04:58 0.16559 111.54580 33000 ft 502 kts 38°
2026-04-29 04:58 0.22068 111.58855 33000 ft 502 kts 38°
2026-04-29 04:59 0.27589 111.63138 33000 ft 502 kts 38°
2026-04-29 04:59 0.33114 111.67425 33000 ft 502 kts 38°
2026-04-29 05:00 0.38628 111.71704 33000 ft 502 kts 38°
2026-04-29 05:00 0.44147 111.75986 33000 ft 502 kts 38°
2026-04-29 05:01 0.49662 111.80266 33000 ft 502 kts 38°
2026-04-29 05:01 0.55132 111.84509 33000 ft 502 kts 38°
2026-04-29 05:02 0.60648 111.88788 33001 ft 502 kts 38°
2026-04-29 05:02 0.66169 111.93073 33001 ft 502 kts 38°
2026-04-29 05:03 0.71679 111.97349 33000 ft 502 kts 38°
2026-04-29 05:03 0.77200 112.01634 33001 ft 502 kts 38°
2026-04-29 05:04 0.82719 112.05917 33000 ft 502 kts 38°
2026-04-29 05:04 0.88215 112.10183 33000 ft 502 kts 38°
2026-04-29 05:05 0.93747 112.14476 33000 ft 502 kts 38°
2026-04-29 05:05 0.99260 112.18755 33000 ft 502 kts 38°
2026-04-29 05:06 1.04767 112.23030 33000 ft 502 kts 38°
2026-04-29 05:06 1.10280 112.27308 32999 ft 502 kts 38°
2026-04-29 05:07 1.15799 112.31593 33000 ft 502 kts 38°
2026-04-29 05:07 1.21318 112.35877 33000 ft 502 kts 38°
2026-04-29 05:08 1.26830 112.40157 33001 ft 502 kts 38°
2026-04-29 05:08 1.32340 112.44434 33000 ft 502 kts 38°
2026-04-29 05:09 1.37819 112.48688 33000 ft 502 kts 38°
2026-04-29 05:09 1.43359 112.52990 33000 ft 502 kts 38°
2026-04-29 05:10 1.48845 112.57250 33000 ft 502 kts 38°
2026-04-29 05:10 1.53459 112.60833 33000 ft 502 kts 38°
2026-04-29 05:10 1.57109 112.63668 33171 ft 500 kts 38°
2026-04-29 05:11 1.58940 112.65098 33377 ft 499 kts 38°
2026-04-29 05:11 1.61656 112.67228 33755 ft 496 kts 38°
2026-04-29 05:11 1.64383 112.69369 34104 ft 495 kts 38°
2026-04-29 05:11 1.67959 112.72178 34479 ft 494 kts 38°
2026-04-29 05:12 1.69775 112.73604 34659 ft 493 kts 38°
2026-04-29 05:12 1.72475 112.75724 34916 ft 493 kts 38°
2026-04-29 05:12 1.75181 112.77848 35008 ft 497 kts 38°
2026-04-29 05:13 1.80645 112.82135 35003 ft 500 kts 38°
2026-04-29 05:13 1.86078 112.86398 35004 ft 499 kts 38°
2026-04-29 05:14 1.91562 112.90701 35003 ft 499 kts 38°
2026-04-29 05:14 1.97015 112.94980 34999 ft 499 kts 38°
2026-04-29 05:15 2.02454 112.99249 35000 ft 499 kts 38°
2026-04-29 05:15 2.07735 113.03395 35002 ft 499 kts 38°
2026-04-29 05:16 2.13190 113.07677 35003 ft 499 kts 38°
2026-04-29 05:16 2.18653 113.11965 35002 ft 499 kts 38°
2026-04-29 05:17 2.24107 113.16248 34986 ft 499 kts 38°
2026-04-29 05:17 2.29569 113.20536 35003 ft 499 kts 38°
2026-04-29 05:18 2.35022 113.24819 34999 ft 499 kts 38°
2026-04-29 05:18 2.40476 113.29103 35003 ft 499 kts 38°
2026-04-29 05:19 2.45936 113.33391 34986 ft 499 kts 38°
2026-04-29 05:19 2.51402 113.37684 34986 ft 499 kts 38°
2026-04-29 05:20 2.56862 113.41974 35004 ft 499 kts 38°
2026-04-29 05:20 2.62304 113.46250 35002 ft 499 kts 38°
2026-04-29 05:21 2.67768 113.50544 35004 ft 499 kts 38°
2026-04-29 05:21 2.73215 113.54825 35003 ft 499 kts 38°
2026-04-29 05:22 2.78678 113.59126 35003 ft 499 kts 38°
2026-04-29 05:22 2.84133 113.63429 35000 ft 499 kts 38°
2026-04-29 05:23 2.89550 113.67698 35004 ft 499 kts 38°
2026-04-29 05:23 2.95014 113.72006 35003 ft 499 kts 38°
2026-04-29 05:24 3.00478 113.76315 35005 ft 499 kts 38°
2026-04-29 05:24 3.05931 113.80617 35000 ft 499 kts 38°
2026-04-29 05:25 3.11375 113.84912 34985 ft 499 kts 38°
2026-04-29 05:25 3.16820 113.89207 34986 ft 499 kts 38°
2026-04-29 05:26 3.22245 113.93489 34998 ft 499 kts 38°
2026-04-29 05:26 3.27728 113.97816 35003 ft 499 kts 38°
2026-04-29 05:27 3.33161 114.02105 35004 ft 499 kts 38°
2026-04-29 05:27 3.41349 114.08569 35003 ft 499 kts 38°
2026-04-29 05:28 3.46760 114.12842 34986 ft 499 kts 38°
2026-04-29 05:28 3.52229 114.17161 35004 ft 499 kts 38°
2026-04-29 05:29 3.57656 114.21448 35002 ft 499 kts 38°
2026-04-29 05:29 3.63098 114.25748 34996 ft 499 kts 38°
2026-04-29 05:30 3.68587 114.30085 35003 ft 499 kts 38°
2026-04-29 05:30 3.73980 114.34347 34985 ft 499 kts 38°
2026-04-29 05:31 3.79429 114.38655 35004 ft 499 kts 38°
2026-04-29 05:31 3.84877 114.42961 35006 ft 499 kts 38°
2026-04-29 05:32 3.90328 114.47271 35003 ft 499 kts 38°
2026-04-29 05:32 3.95787 114.51567 34998 ft 499 kts 37°
2026-04-29 05:33 4.01335 114.55734 34986 ft 499 kts 36°
2026-04-29 05:33 4.06904 114.59871 35000 ft 499 kts 37°
2026-04-29 05:34 4.12468 114.64035 35001 ft 499 kts 37°
2026-04-29 05:34 4.18023 114.68214 35004 ft 499 kts 37°
2026-04-29 05:35 4.23567 114.72391 35002 ft 499 kts 37°
2026-04-29 05:35 4.29100 114.76559 35003 ft 499 kts 37°
2026-04-29 05:36 4.34225 114.80420 34998 ft 499 kts 37°
2026-04-29 05:36 4.39579 114.84454 34986 ft 499 kts 37°
2026-04-29 05:37 4.45072 114.88601 35003 ft 499 kts 37°
2026-04-29 05:37 4.50500 114.92948 35003 ft 499 kts 39°
2026-04-29 05:38 4.55869 114.97362 35005 ft 499 kts 39°
2026-04-29 05:38 4.61230 115.01739 35003 ft 499 kts 39°
2026-04-29 05:39 4.66645 115.06129 34999 ft 499 kts 39°
2026-04-29 05:39 4.72031 115.10488 35001 ft 499 kts 39°
2026-04-29 05:40 4.77442 115.14868 35003 ft 499 kts 39°
2026-04-29 05:40 4.82842 115.19241 35002 ft 499 kts 39°
2026-04-29 05:41 4.88240 115.23603 34986 ft 499 kts 38°
2026-04-29 05:41 4.93659 115.27878 35003 ft 499 kts 38°
2026-04-29 05:42 4.99157 115.32197 35000 ft 499 kts 38°
2026-04-29 05:42 5.04616 115.36503 35000 ft 499 kts 38°
2026-04-29 05:43 5.10063 115.40812 35003 ft 499 kts 38°
2026-04-29 05:43 5.15458 115.45083 35000 ft 499 kts 38°
2026-04-29 05:44 5.20918 115.49405 35003 ft 499 kts 38°
2026-04-29 05:44 5.26361 115.53715 35004 ft 499 kts 38°
2026-04-29 05:45 5.31816 115.58034 35001 ft 499 kts 38°
2026-04-29 05:45 5.37262 115.62348 35004 ft 499 kts 38°
2026-04-29 05:46 5.42726 115.66640 35005 ft 499 kts 38°
2026-04-29 05:46 5.48216 115.70893 35003 ft 499 kts 38°
2026-04-29 05:47 5.53711 115.75157 34999 ft 499 kts 38°
2026-04-29 05:47 5.59182 115.79415 35004 ft 499 kts 38°
2026-04-29 05:48 5.64636 115.83666 35004 ft 499 kts 38°
2026-04-29 05:48 5.70118 115.87940 35004 ft 499 kts 38°
2026-04-29 05:49 5.75598 115.92213 35003 ft 499 kts 38°
2026-04-29 05:49 5.81064 115.96476 35003 ft 499 kts 38°
2026-04-29 05:50 5.86557 116.00760 35003 ft 499 kts 38°
2026-04-29 05:50 5.92042 116.05010 34985 ft 499 kts 36°
2026-04-29 05:51 5.97746 116.09013 34995 ft 499 kts 34°
2026-04-29 05:51 6.03480 116.12919 35003 ft 499 kts 34°
2026-04-29 05:52 6.09206 116.16876 35004 ft 499 kts 34°
2026-04-29 05:52 6.14901 116.20856 35003 ft 499 kts 35°
2026-04-29 05:53 6.20591 116.24845 35003 ft 499 kts 35°
2026-04-29 05:53 6.26273 116.28828 35004 ft 499 kts 35°
2026-04-29 05:54 6.31961 116.32814 35000 ft 499 kts 35°
2026-04-29 05:54 6.37662 116.36809 35001 ft 499 kts 35°
2026-04-29 05:55 6.43358 116.40802 35003 ft 499 kts 35°
2026-04-29 05:55 6.49050 116.44791 34999 ft 499 kts 35°
2026-04-29 05:56 6.54728 116.48774 34998 ft 499 kts 35°
2026-04-29 05:56 6.60386 116.52750 35003 ft 499 kts 35°
2026-04-29 05:57 6.66076 116.56754 35004 ft 499 kts 35°
2026-04-29 05:57 6.71759 116.60747 35003 ft 499 kts 35°
2026-04-29 05:58 6.77449 116.64748 35001 ft 499 kts 35°
2026-04-29 05:58 6.83134 116.68749 35001 ft 499 kts 35°
2026-04-29 05:59 6.88836 116.72763 35000 ft 499 kts 35°
2026-04-29 05:59 6.93600 116.76116 35003 ft 499 kts 35°
2026-04-29 06:00 7.00204 116.80767 35001 ft 499 kts 35°
2026-04-29 06:00 7.04928 116.84096 35000 ft 499 kts 35°
2026-04-29 06:01 7.10608 116.88099 35005 ft 499 kts 35°
2026-04-29 06:01 7.16288 116.92104 35001 ft 499 kts 35°
2026-04-29 06:02 7.21968 116.96110 35004 ft 499 kts 35°
2026-04-29 06:02 7.27653 117.00119 35003 ft 499 kts 35°